Weather History for Athens, OH

Change the Weather History Date:

Sunday, February 16, 2014

  Actual Average (KPKB) Record (KPKB)
Temperature  
Mean Temperature 20 °F 35 °F  
Max Temperature 29 °F 44 °F 74 °F (1921)
Min Temperature 10 °F 26 °F -6 °F (1963)
Degree Days  
Heating Degree Days 46 30  
Month to date heating degree days 504  
Since 1 July heating degree days 3449  
Cooling Degree Days 0 0  
Month to date cooling degree days 0  
Year to date cooling degree days 0  
Moisture  
Dew Point 17 °F    
Average Humidity 80    
Maximum Humidity 89    
Minimum Humidity 68    
Precipitation  
Precipitation 0.00 in 0.09 in 0.68 in (2003)
Month to date precipitation 1.52  
Year to date precipitation 4.47  
Sea Level Pressure  
Sea Level Pressure 30.10 in    
Wind  
Wind Speed 3 mph (West)    
Max Wind Speed 13 mph    
Max Gust Speed 17 mph    
Visibility 9 miles    
Events Snow    
T = Trace of Precipitation, MM = Missing Value Source: NWS Daily Summary

Daily Weather History Graph

Daily Weather History Graph

Search for Another Location

Airport:

Trip Planner

Search our weather history database for the weather conditions in past years. The results will help you decide how hot, cold, wet, or windy it might be!

Date:

Astronomy

Feb. 16, 2014 Rise Set
Actual Time 7:19 AM EST 6:07 PM EST
Civil Twilight 6:51 AM EST 6:34 PM EST
Nautical Twilight 6:20 AM EST 7:05 PM EST
Astronomical Twilight 5:49 AM EST 7:36 PM EST
Moon 8:01 PM EST (2/16) 7:49 AM EST (2/16)
Length of Visible Light 11h 42m
Length of Day
10h 47m
Full, 97% of the Moon is Illuminated
Feb 16
Full
Feb 22
Last Quarter
Mar 1
New
Mar 8
First Quarter
Mar 16
Full

Hourly Weather History & Observations

Time (EST) Temp. Windchill Dew Point Humidity Pressure Visibility Wind Dir Wind Speed Gust Speed Precip Events Conditions
12:15 AM 10.9 °F - 7.7 °F 87% 30.08 in 10.0 mi Calm Calm - N/A   Scattered Clouds
12:35 AM 11.3 °F - 8.2 °F 87% 30.08 in 10.0 mi Calm Calm - N/A   Scattered Clouds
12:55 AM 10.0 °F - 6.8 °F 87% 30.08 in 10.0 mi Calm Calm - N/A   Scattered Clouds
1:15 AM 10.8 °F - 7.7 °F 87% 30.07 in 10.0 mi Calm Calm - N/A   Mostly Cloudy
1:35 AM 10.0 °F - 7.3 °F 89% 30.07 in 10.0 mi Calm Calm - N/A   Overcast
1:55 AM 10.2 °F - 7.5 °F 89% 30.06 in 10.0 mi Calm Calm - N/A   Overcast
2:15 AM 10.4 °F - 7.7 °F 89% 30.06 in 7.0 mi Calm Calm - N/A   Overcast
2:35 AM 11.1 °F - 8.1 °F 87% 30.06 in 7.0 mi Calm Calm - N/A   Overcast
2:55 AM 12.6 °F - 9.5 °F 88% 30.06 in 7.0 mi Calm Calm - N/A   Overcast
3:15 AM 12.4 °F - 9.3 °F 88% 30.05 in 10.0 mi Calm Calm - N/A   Overcast
3:35 AM 13.1 °F - 10.0 °F 88% 30.05 in 10.0 mi Calm Calm - N/A   Overcast
3:55 AM 13.5 °F - 10.0 °F 86% 30.04 in 10.0 mi Calm Calm - N/A   Overcast
4:15 AM 13.5 °F - 10.2 °F 87% 30.03 in 10.0 mi Calm Calm - N/A   Overcast
4:35 AM 13.5 °F - 10.0 °F 86% 30.03 in 10.0 mi Calm Calm - N/A   Overcast
4:55 AM 14.9 °F - 11.8 °F 88% 30.03 in 10.0 mi Calm Calm - N/A   Overcast
5:15 AM 15.3 °F - 12.2 °F 88% 30.02 in 3.0 mi Calm Calm - N/A Snow Light Snow
5:35 AM 16.2 °F - 13.5 °F 89% 30.01 in 4.0 mi Calm Calm - N/A Snow Light Snow
5:55 AM 18.7 °F - 15.4 °F 87% 30.00 in 10.0 mi Calm Calm - N/A Snow Light Snow
6:15 AM 20.3 °F - 16.5 °F 85% 30.01 in 10.0 mi Calm Calm - N/A   Overcast
6:35 AM 20.3 °F - 16.5 °F 85% 30.01 in 10.0 mi Calm Calm - N/A   Overcast
6:55 AM 20.3 °F - 16.5 °F 85% 30.00 in 10.0 mi Calm Calm - N/A   Overcast
7:15 AM 20.1 °F - 16.3 °F 85% 30.00 in 10.0 mi Calm Calm - N/A   Overcast
7:35 AM 20.8 °F 14.4 °F 16.9 °F 85% 29.99 in 10.0 mi SSE 4.6 mph - N/A   Overcast
7:55 AM 21.0 °F 14.6 °F 17.2 °F 85% 29.99 in 10.0 mi SSE 4.6 mph - N/A   Overcast
8:15 AM 21.7 °F 14.3 °F 17.6 °F 84% 30.00 in 10.0 mi South 5.8 mph - N/A   Overcast
8:35 AM 22.1 °F 14.7 °F 18.1 °F 85% 30.00 in 10.0 mi SSW 5.8 mph - N/A   Overcast
8:55 AM 22.5 °F 17.8 °F 18.3 °F 84% 30.01 in 10.0 mi SSW 3.5 mph - N/A   Overcast
9:15 AM 22.6 °F - 18.5 °F 84% 30.00 in 10.0 mi Calm Calm - N/A   Overcast
9:35 AM 23.4 °F - 19.2 °F 84% 30.00 in 10.0 mi Calm Calm - N/A   Overcast
9:55 AM 23.7 °F 19.3 °F 19.6 °F 84% 30.00 in 7.0 mi South 3.5 mph - N/A   Overcast
10:15 AM 24.4 °F 20.1 °F 20.3 °F 84% 30.00 in 5.0 mi South 3.5 mph - N/A Snow Light Snow
10:35 AM 25.5 °F 17.8 °F 21.0 °F 83% 30.01 in 7.0 mi SW 6.9 mph - N/A   Overcast
10:55 AM 26.2 °F 20.7 °F 21.2 °F 81% 30.00 in 7.0 mi SSW 4.6 mph - N/A Snow Light Snow
11:15 AM 26.6 °F 21.2 °F 21.4 °F 81% 30.01 in 10.0 mi WSW 4.6 mph - N/A Snow Light Snow
11:35 AM 27.1 °F 19.7 °F 21.9 °F 81% 30.02 in 10.0 mi WSW 6.9 mph - N/A   Overcast
11:55 AM 27.5 °F 21.1 °F 22.1 °F 80% 30.02 in 10.0 mi WSW 5.8 mph - N/A   Overcast
12:15 PM 28.4 °F 19.7 °F 22.5 °F 78% 30.02 in 10.0 mi West 9.2 mph - N/A   Overcast
12:35 PM 28.4 °F 19.7 °F 22.5 °F 78% 30.02 in 10.0 mi WSW 9.2 mph - N/A   Overcast
12:55 PM 28.9 °F 20.4 °F 22.5 °F 77% 30.02 in 10.0 mi West 9.2 mph - N/A   Overcast
1:15 PM 29.1 °F 21.3 °F 22.5 °F 76% 30.02 in 10.0 mi West 8.1 mph - N/A   Overcast
1:35 PM 29.3 °F 21.5 °F 22.5 °F 76% 30.02 in 10.0 mi West 8.1 mph - N/A   Overcast
1:55 PM 29.3 °F 20.8 °F 22.8 °F 77% 30.03 in 10.0 mi West 9.2 mph - N/A   Overcast
2:15 PM 29.5 °F 22.5 °F 23.0 °F 77% 30.03 in 10.0 mi West 6.9 mph - N/A   Overcast
2:35 PM 29.3 °F 20.8 °F 23.0 °F 77% 30.04 in 10.0 mi West 9.2 mph - N/A   Overcast
2:55 PM 29.7 °F 22.8 °F 22.8 °F 76% 30.04 in 10.0 mi WNW 6.9 mph - N/A   Overcast
3:15 PM 29.8 °F 21.5 °F 22.5 °F 74% 30.06 in 10.0 mi WNW 9.2 mph - N/A   Overcast
3:35 PM 29.7 °F 20.7 °F 22.1 °F 73% 30.07 in 7.0 mi West 10.4 mph - N/A   Overcast
3:55 PM 29.7 °F 22.0 °F 22.8 °F 76% 30.09 in 5.0 mi WNW 8.1 mph - N/A Snow Light Snow
4:15 PM 29.3 °F 21.5 °F 23.0 °F 77% 30.11 in 3.0 mi WNW 8.1 mph - N/A Snow Light Snow
4:35 PM 28.8 °F 19.5 °F 23.0 °F 79% 30.12 in 3.0 mi West 10.4 mph - N/A Snow Light Snow
4:55 PM 28.4 °F 22.2 °F 23.2 °F 81% 30.13 in 4.0 mi West 5.8 mph - N/A Snow Light Snow
5:15 PM 27.9 °F 21.5 °F 23.9 °F 85% 30.14 in 1.2 mi WNW 5.8 mph - N/A Snow Light Snow
5:35 PM 27.5 °F 22.2 °F 23.2 °F 84% 30.15 in 4.0 mi WNW 4.6 mph - N/A Snow Light Snow
5:55 PM 27.5 °F 16.8 °F 21.0 °F 77% 30.17 in 10.0 mi WNW 12.7 mph 17.3 mph N/A   Overcast
6:15 PM 27.3 °F 16.6 °F 19.9 °F 74% 30.19 in 7.0 mi WNW 12.7 mph 17.3 mph N/A   Overcast
6:35 PM 26.6 °F 20.0 °F 20.1 °F 77% 30.20 in 7.0 mi WNW 5.8 mph - N/A   Overcast
6:55 PM 26.6 °F 20.0 °F 20.3 °F 77% 30.22 in 7.0 mi NW 5.8 mph - N/A Snow Light Snow
7:15 PM 26.2 °F 15.8 °F 19.8 °F 76% 30.23 in 10.0 mi WNW 11.5 mph - N/A   Overcast
7:35 PM 25.7 °F 18.0 °F 16.7 °F 69% 30.24 in 10.0 mi WNW 6.9 mph - N/A   Overcast
7:55 PM 25.5 °F 16.2 °F 16.3 °F 68% 30.26 in 10.0 mi WNW 9.2 mph - N/A   Overcast
8:15 PM 25.0 °F 20.7 °F 15.8 °F 68% 30.27 in 10.0 mi WNW 3.5 mph - N/A   Overcast
8:35 PM 24.8 °F 20.5 °F 16.5 °F 71% 30.27 in 10.0 mi WNW 3.5 mph - N/A   Overcast
8:55 PM 24.6 °F 18.8 °F 16.7 °F 72% 30.28 in 10.0 mi WNW 4.6 mph - N/A   Overcast
9:15 PM 24.6 °F 18.8 °F 17.1 °F 73% 30.29 in 10.0 mi WNW 4.6 mph - N/A   Overcast
9:35 PM 24.6 °F 20.3 °F 17.2 °F 74% 30.30 in 10.0 mi WNW 3.5 mph - N/A   Overcast
9:55 PM 24.6 °F 18.8 °F 17.6 °F 75% 30.31 in 10.0 mi WNW 4.6 mph - N/A   Overcast
10:15 PM 24.3 °F - 17.6 °F 76% 30.31 in 10.0 mi Calm Calm - N/A   Overcast
10:35 PM 24.4 °F 20.1 °F 16.9 °F 73% 30.31 in 10.0 mi WNW 3.5 mph - N/A   Overcast
10:55 PM 24.1 °F 19.7 °F 16.7 °F 73% 30.31 in 10.0 mi NNW 3.5 mph - N/A   Overcast
11:15 PM 23.9 °F 15.0 °F 15.8 °F 71% 30.31 in 10.0 mi North 8.1 mph - N/A   Overcast
11:35 PM 23.7 °F 16.6 °F 15.1 °F 70% 30.31 in 10.0 mi North 5.8 mph - N/A   Overcast
11:55 PM 22.8 °F 15.5 °F 13.6 °F 68% 30.31 in 10.0 mi North 5.8 mph - N/A   Overcast